User: anonymous   Login
Location: Unspecified
(0.0000°N, 0.0000°E)
Time: 21:54:00
(UTC+00:00)
Language:

nSIGHT-1 - Orbit

View from above orbital plane
View from above orbital plane
View from above satellite
View from above satellite

Ground track
Ground track

The orbit data is extracted from the following two-line orbital elements,

1 42726U 98067MF  18018.44215500  .00005768  00000-0  78962-4 0  9992
2 42726  51.6393  40.7318 0006302  37.1380 323.0048 15.59035739 37025
Epoch (UTC): 18 January 2018 10:36:42
Eccentricity: 0.0006302
inclination: 51.6393°
perigee height: 386 km
apogee height: 395 km
right ascension of ascending node: 40.7318°
argument of perigee: 37.1380°
revolutions per day: 15.59035739
mean anomaly at epoch: 323.0048°
orbit number at epoch: 3702

The dashed part of the orbit path shows where the satellite is in the earth's shadow,  

DLR